CW0965 Weather Reports


Display with metric or nautical units.
time (UTC)temp
F
wind
direction
speed
MPH
gust
MPH
rain 1hr
in
rain 24hr
in
rain mn
in
humidity
%
barometer
mb
20210728162630 89 169 0.0 17.0 0.00 0.00 0.00 71 1009.4
20210728162130 89 169 0.0 17.0 0.00 0.00 0.00 68 1009.4
20210728161129 89 172 3.0 17.0 0.00 0.00 0.00 67 1009.3
20210728155630 88 198 0.0 12.0 0.00 0.00 0.00 70 1009.2
20210728154630 87 202 3.0 12.0 0.00 0.00 0.00 69 1009.2
20210728153630 87 197 0.0 12.0 0.00 0.00 0.00 73 1009.1
20210728153130 86 201 3.0 10.0 0.00 0.00 0.00 73 1009.1
20210728152631 86 202 0.0 10.0 0.00 0.00 0.00 72 1009.2
20210728151630 85 203 2.0 10.0 0.00 0.00 0.00 73 1009.4
20210728151130 85 159 0.0 7.0 0.00 0.00 0.00 75 1009.4
20210728150130 84 159 0.0 9.0 0.00 0.00 0.00 75 1009.4
20210728145630 83 159 0.0 9.0 0.00 0.00 0.00 80 1009.5
20210728143630 80 159 0.0 7.0 0.00 0.00 0.00 81 1009.9
20210728143130 79 159 0.0 7.0 0.00 0.00 0.00 81 1010.0
20210728142630 79 159 0.0 7.0 0.00 0.00 0.00 82 1010.0
20210728142130 78 159 0.0 7.0 0.00 0.00 0.00 82 1010.0
20210728140630 77 159 0.0 0.0 0.00 0.00 0.00 82 1010.2
20210728135630 77 159 0.0 3.0 0.00 0.00 0.00 83 1009.9
20210728135130 76 159 0.0 3.0 0.00 0.00 0.00 83 1010.1
20210728134630 76 159 2.0 3.0 0.00 0.00 0.00 83 1010.2
20210728134130 76 158 0.0 3.0 0.00 0.00 0.00 84 1010.3
20210728133630 76 158 0.0 3.0 0.00 0.00 0.00 84 1010.2
20210728132630 75 158 0.0 3.0 0.00 0.00 0.00 85 1010.2
20210728132130 75 158 0.0 3.0 0.00 0.00 0.00 85 1010.2
20210728131130 74 158 0.0 3.0 0.00 0.00 0.00 85 1010.3
20210728125630 73 158 0.0 3.0 0.00 0.00 0.00 86 1010.4
20210728124630 73 158 0.0 2.0 0.00 0.00 0.00 86 1010.5
20210728123630 72 158 0.0 2.0 0.00 0.00 0.00 87 1010.5
20210728122630 72 158 0.0 0.0 0.00 0.00 0.00 87 1010.6
20210728121130 72 158 0.0 0.0 0.00 0.00 0.00 87 1010.6
20210728120630 72 158 0.0 0.0 0.00 0.00 0.00 87 1010.5
20210728115631 72 158 0.0 0.0 0.00 0.00 0.00 87 1010.5
20210728115130 72 158 0.0 0.0 0.00 0.00 0.00 87 1010.3
20210728114130 72 158 0.0 0.0 0.00 0.00 0.00 86 1010.3
20210728113630 72 158 0.0 0.0 0.00 0.00 0.00 86 1010.3
20210728110630 73 158 0.0 0.0 0.00 0.00 0.00 85 1010.3
20210728110130 73 158 0.0 0.0 0.00 0.00 0.00 84 1010.3
20210728105630 73 158 0.0 0.0 0.00 0.00 0.00 84 1010.2
20210728105130 73 158 0.0 0.0 0.00 0.00 0.00 84 1010.2
20210728104130 73 158 0.0 0.0 0.00 0.00 0.00 84 1010.3
20210728103130 73 158 0.0 0.0 0.00 0.00 0.00 84 1010.3
20210728102130 73 158 0.0 0.0 0.00 0.00 0.00 85 1010.3
20210728101130 73 158 0.0 0.0 0.00 0.00 0.00 85 1010.2
20210728095131 73 158 0.0 0.0 0.00 0.00 0.00 86 1010.0
20210728094630 73 158 0.0 0.0 0.00 0.00 0.00 86 1010.0
20210728093630 73 158 0.0 0.0 0.00 0.00 0.00 87 1010.0
20210728092630 73 158 0.0 0.0 0.00 0.00 0.00 88 1010.0
20210728092130 73 158 0.0 0.0 0.00 0.00 0.00 88 1010.0
20210728091130 73 158 0.0 0.0 0.00 0.00 0.00 88 1010.0
20210728083631 74 158 0.0 0.0 0.00 0.00 0.00 88 1009.9
20210728083130 74 158 0.0 0.0 0.00 0.00 0.00 88 1009.8
20210728080630 74 158 0.0 0.0 0.00 0.00 0.00 88 1009.8
20210728080131 74 158 0.0 0.0 0.00 0.00 0.00 88 1009.8
20210728075630 74 158 0.0 0.0 0.00 0.00 0.00 88 1009.6
20210728073630 75 158 0.0 0.0 0.00 0.00 0.00 88 1009.7
20210728073130 75 158 0.0 0.0 0.00 0.00 0.00 88 1009.7
20210728072130 75 158 0.0 0.0 0.00 0.00 0.00 87 1009.6
20210728071630 75 158 0.0 0.0 0.00 0.00 0.00 87 1009.6
20210728071130 75 158 0.0 0.0 0.00 0.00 0.00 87 1009.6
20210728070131 76 158 0.0 2.0 0.00 0.00 0.00 87 1009.6
20210728065630 76 158 0.0 2.0 0.00 0.00 0.00 87 1009.6
20210728064130 76 158 0.0 2.0 0.00 0.00 0.00 86 1009.7
20210728063630 76 158 0.0 2.0 0.00 0.00 0.00 86 1009.7
20210728063130 76 158 0.0 2.0 0.00 0.00 0.00 86 1009.7
20210728062630 76 158 0.0 2.0 0.00 0.00 0.00 85 1009.8
20210728062130 76 158 0.0 2.0 0.00 0.00 0.00 85 1009.7
20210728061630 76 158 0.0 2.0 0.00 0.00 0.00 85 1009.7
20210728061130 77 158 0.0 2.0 0.00 0.00 0.00 85 1009.7
20210728060630 77 158 0.0 0.0 0.00 0.00 0.00 85 1009.7
20210728054630 77 158 0.0 5.0 0.00 0.00 0.00 84 1009.7
20210728054131 77 158 0.0 5.0 0.00 0.00 0.00 84 1009.7
20210728052630 78 158 0.0 5.0 0.00 0.00 0.00 83 1009.5
20210728052130 78 158 2.0 5.0 0.00 0.00 0.00 83 1009.5
20210728051130 78 158 0.0 3.0 0.00 0.00 0.00 83 1009.5
20210728050631 78 158 0.0 2.0 0.00 0.00 0.00 83 1009.4
20210728045130 79 158 0.0 5.0 0.00 0.00 0.00 82 1009.5
20210728044630 79 158 0.0 5.0 0.00 0.00 0.00 82 1009.6
20210728044130 79 158 0.0 5.0 0.00 0.00 0.00 81 1009.5
20210728043631 79 158 0.0 5.0 0.00 0.00 0.00 81 1009.4
20210728043130 79 158 0.0 2.0 0.00 0.00 0.00 81 1009.4
20210728042130 80 158 0.0 2.0 0.00 0.00 0.00 81 1009.3
20210728035130 81 158 0.0 9.0 0.00 0.00 0.00 79 1009.3
20210728034630 81 158 0.0 9.0 0.00 0.00 0.00 79 1009.3
20210728033630 81 158 0.0 3.0 0.00 0.00 0.00 80 1009.1
20210728032630 81 158 0.0 3.0 0.00 0.00 0.00 79 1009.2
20210728032130 82 158 0.0 3.0 0.00 0.00 0.00 79 1009.1
20210728030130 82 158 0.0 9.0 0.00 0.00 0.00 78 1009.3
20210728024630 83 158 0.0 3.0 0.00 0.00 0.00 77 1008.9
20210728023630 83 158 0.0 3.0 0.00 0.00 0.00 76 1008.9
20210728023130 84 158 0.0 3.0 0.00 0.00 0.00 76 1008.7
20210728022630 84 158 0.0 3.0 0.00 0.00 0.00 76 1008.7
20210728022130 84 158 0.0 2.0 0.00 0.00 0.00 76 1008.6
20210728021130 85 158 0.0 2.0 0.00 0.00 0.00 75 1008.5
20210728020630 85 158 0.0 0.0 0.00 0.00 0.00 74 1008.4
20210728015630 86 158 0.0 5.0 0.00 0.00 0.00 72 1008.7
20210728015130 86 158 0.0 5.0 0.00 0.00 0.00 71 1008.8
20210728014630 86 158 0.0 5.0 0.00 0.00 0.00 70 1008.7
20210728013630 86 158 0.0 2.0 0.00 0.00 0.00 68 1008.7
20210728012630 87 158 0.0 2.0 0.00 0.00 0.00 66 1008.5
20210728012130 87 158 0.0 2.0 0.00 0.00 0.00 65 1008.4
20210728011130 87 158 0.0 0.0 0.00 0.00 0.00 65 1008.5
20210728010130 88 158 0.0 5.0 0.00 0.00 0.00 64 1008.6
20210728004130 88 158 0.0 5.0 0.00 0.00 0.00 65 1008.5
20210728000631 89 158 0.0 0.0 0.00 0.00 0.00 59 1008.7
20210728000130 89 158 0.0 9.0 0.00 0.00 0.00 62 1008.8
20210727235630 89 158 2.0 9.0 0.00 0.00 0.00 60 1008.8
20210727235130 89 158 0.0 9.0 0.00 0.00 0.00 60 1008.9
20210727233630 90 158 0.0 9.0 0.00 0.00 0.00 62 1008.9
20210727233130 90 158 0.0 9.0 0.00 0.00 0.00 60 1008.9
20210727232630 90 158 0.0 9.0 0.00 0.00 0.00 60 1008.9
20210727232131 90 158 0.0 9.0 0.00 0.00 0.00 60 1008.9
20210727231130 90 159 0.0 5.0 0.00 0.00 0.00 60 1009.0
20210727230130 90 159 0.0 10.0 0.00 0.00 0.00 63 1009.0
20210727223130 90 159 0.0 9.0 0.00 0.00 0.00 62 1009.0
20210727222131 91 160 0.0 5.0 0.00 0.00 0.00 62 1009.0
20210727215130 91 182 0.0 12.0 0.00 0.00 0.00 61 1009.1
20210727214630 91 159 0.0 12.0 0.00 0.00 0.00 60 1009.1
20210727214130 91 159 0.0 12.0 0.00 0.00 0.00 62 1009.1
20210727213630 91 161 0.0 12.0 0.00 0.00 0.00 62 1009.1
20210727213130 91 161 0.0 12.0 0.00 0.00 0.00 64 1009.1
20210727212131 91 163 3.0 12.0 0.00 0.00 0.00 61 1009.1
20210727211630 91 163 0.0 12.0 0.00 0.00 0.00 64 1009.1
20210727210131 91 165 0.0 14.0 0.00 0.00 0.00 63 1009.3
20210727204630 91 165 0.0 14.0 0.00 0.00 0.00 61 1009.5
20210727204130 91 165 0.0 14.0 0.00 0.00 0.00 63 1009.5
20210727202630 90 165 5.0 14.0 0.00 0.00 0.00 61 1009.7
20210727202130 91 164 3.0 9.0 0.00 0.00 0.00 60 1009.6
20210727200630 91 164 3.0 3.0 0.00 0.00 0.00 61 1009.7
20210727200131 91 165 0.0 12.0 0.00 0.00 0.00 63 1009.5
20210727195130 90 165 0.0 12.0 0.00 0.00 0.00 68 1009.6
20210727194630 90 165 0.0 12.0 0.00 0.00 0.00 63 1009.5
20210727193630 90 165 0.0 12.0 0.00 0.00 0.00 70 1009.5
20210727193130 90 165 2.0 12.0 0.00 0.00 0.00 63 1009.6
20210727192131 90 175 0.0 10.0 0.00 0.00 0.00 68 1009.5
20210727191630 90 175 2.0 10.0 0.00 0.00 0.00 69 1009.5
20210727191130 90 175 0.0 10.0 0.00 0.00 0.00 65 1009.5
20210727190630 90 176 0.0 0.0 0.00 0.00 0.00 67 1009.5
20210727190130 90 178 0.0 9.0 0.00 0.00 0.00 67 1009.3
20210727185130 90 182 5.0 9.0 0.00 0.00 0.00 68 1009.5
20210727183630 90 182 0.0 9.0 0.00 0.00 0.00 67 1009.4
20210727183130 90 183 2.0 9.0 0.00 0.00 0.00 67 1009.4
20210727181630 90 186 2.0 7.0 0.00 0.00 0.00 64 1009.5
20210727180630 90 181 0.0 0.0 0.00 0.00 0.00 70 1009.7
20210727175630 90 181 0.0 7.0 0.00 0.00 0.00 65 1009.7
20210727174130 90 181 0.0 7.0 0.00 0.00 0.00 68 1009.7
20210727173130 89 181 0.0 5.0 0.00 0.00 0.00 69 1009.7
20210727172130 89 181 0.0 5.0 0.00 0.00 0.00 68 1009.8
20210727171630 89 181 0.0 5.0 0.00 0.00 0.00 67 1009.9
20210727170630 88 181 0.0 0.0 0.00 0.00 0.00 73 1009.9
20210727170130 88 181 0.0 7.0 0.00 0.00 0.00 68 1009.9
20210727164630 88 181 0.0 7.0 0.00 0.00 0.00 72 1009.8
20210727163630 87 181 0.0 7.0 0.00 0.00 0.00 72 1010.0